Year,Month,Day,Hour,Minute,Value (Times are PST for temperature in C)
2017,06,24,00,00,15.70
2017,06,24,00,01,15.70
2017,06,24,00,02,15.80
2017,06,24,00,03,15.90
2017,06,24,00,04,16.00
2017,06,24,00,05,16.10
2017,06,24,00,06,16.10
2017,06,24,00,07,16.20
2017,06,24,00,08,16.20
2017,06,24,00,09,16.30
2017,06,24,00,10,16.30
2017,06,24,00,11,16.40
2017,06,24,00,12,16.50
2017,06,24,00,13,16.50
2017,06,24,00,14,16.60
2017,06,24,00,15,16.50
2017,06,24,00,16,16.40
2017,06,24,00,17,16.40
2017,06,24,00,18,16.40
2017,06,24,00,19,16.40
2017,06,24,00,20,16.30
2017,06,24,00,21,16.30
2017,06,24,00,22,16.30
2017,06,24,00,23,16.30
2017,06,24,00,24,16.30
2017,06,24,00,25,16.30
2017,06,24,00,26,16.40
2017,06,24,00,27,16.40
2017,06,24,00,28,16.40
2017,06,24,00,29,16.40
2017,06,24,00,30,16.30
2017,06,24,00,31,16.30
2017,06,24,00,32,16.30
2017,06,24,00,33,16.30
2017,06,24,00,34,16.20
2017,06,24,00,35,16.10
2017,06,24,00,36,16.10
2017,06,24,00,37,16.00
2017,06,24,00,38,15.90
2017,06,24,00,39,15.90
2017,06,24,00,40,15.80
2017,06,24,00,41,15.90
2017,06,24,00,42,15.90
2017,06,24,00,43,15.90
2017,06,24,00,44,16.00
2017,06,24,00,45,16.10
2017,06,24,00,46,16.20
2017,06,24,00,47,16.20
2017,06,24,00,48,16.20
2017,06,24,00,49,16.20
2017,06,24,00,50,16.10
2017,06,24,00,51,16.10
2017,06,24,00,52,16.00
2017,06,24,00,53,16.00
2017,06,24,00,54,16.00
2017,06,24,00,55,15.90
2017,06,24,00,56,15.90
2017,06,24,00,57,15.80
2017,06,24,00,58,15.80
2017,06,24,00,59,15.80
2017,06,24,01,00,15.80
2017,06,24,01,01,15.80
2017,06,24,01,02,15.80
2017,06,24,01,03,15.80
2017,06,24,01,04,15.80
2017,06,24,01,05,15.80
2017,06,24,01,06,15.80
2017,06,24,01,07,15.90
2017,06,24,01,08,15.90
2017,06,24,01,09,15.90
2017,06,24,01,10,16.00
2017,06,24,01,11,16.00
2017,06,24,01,12,16.10
2017,06,24,01,13,16.10
2017,06,24,01,14,16.20
2017,06,24,01,15,16.20
2017,06,24,01,16,16.30
2017,06,24,01,17,16.30
2017,06,24,01,18,16.30
2017,06,24,01,19,16.30
2017,06,24,01,20,16.40
2017,06,24,01,21,16.40
2017,06,24,01,22,16.40
2017,06,24,01,23,16.30
2017,06,24,01,24,16.30
2017,06,24,01,25,16.30
2017,06,24,01,26,16.30
2017,06,24,01,27,16.30
2017,06,24,01,28,16.30
2017,06,24,01,29,16.40
2017,06,24,01,30,16.50
2017,06,24,01,31,16.50
2017,06,24,01,32,16.60
2017,06,24,01,33,16.80
2017,06,24,01,34,16.80
2017,06,24,01,35,16.90
2017,06,24,01,36,16.80
2017,06,24,01,37,16.90
2017,06,24,01,38,16.90
2017,06,24,01,39,17.00
2017,06,24,01,40,17.20
2017,06,24,01,41,17.30
2017,06,24,01,42,17.40
2017,06,24,01,43,17.50
2017,06,24,01,44,17.70
2017,06,24,01,45,17.90
2017,06,24,01,46,18.00
2017,06,24,01,47,18.10
2017,06,24,01,48,18.30
2017,06,24,01,49,18.40
2017,06,24,01,50,18.50
2017,06,24,01,51,18.50
2017,06,24,01,52,18.60
2017,06,24,01,53,18.60
2017,06,24,01,54,18.70
2017,06,24,01,55,18.70
2017,06,24,01,56,18.70
2017,06,24,01,57,18.70
2017,06,24,01,58,18.70
2017,06,24,01,59,18.70
2017,06,24,02,00,18.60
2017,06,24,02,01,18.60
2017,06,24,02,02,18.50
2017,06,24,02,03,18.40
2017,06,24,02,04,18.30
2017,06,24,02,05,18.20
2017,06,24,02,06,18.20
2017,06,24,02,07,18.10
2017,06,24,02,08,18.00
2017,06,24,02,09,17.90
2017,06,24,02,10,17.90
2017,06,24,02,11,18.00
2017,06,24,02,12,18.00
2017,06,24,02,13,18.00
2017,06,24,02,14,17.90
2017,06,24,02,15,17.90
2017,06,24,02,16,17.90
2017,06,24,02,17,17.80
2017,06,24,02,18,17.80
2017,06,24,02,19,17.80
2017,06,24,02,20,17.80
2017,06,24,02,21,17.80
2017,06,24,02,22,17.80
2017,06,24,02,23,17.80
2017,06,24,02,24,17.80
2017,06,24,02,25,17.80
2017,06,24,02,26,17.80
2017,06,24,02,27,17.80
2017,06,24,02,28,17.80
2017,06,24,02,29,17.80
2017,06,24,02,30,17.80
2017,06,24,02,31,17.80
2017,06,24,02,32,17.80
2017,06,24,02,33,17.80
2017,06,24,02,34,17.80
2017,06,24,02,35,17.80
2017,06,24,02,36,17.70
2017,06,24,02,37,17.70
2017,06,24,02,38,17.60
2017,06,24,02,39,17.60
2017,06,24,02,40,17.50
2017,06,24,02,41,17.40
2017,06,24,02,42,17.30
2017,06,24,02,43,17.30
2017,06,24,02,44,17.20
2017,06,24,02,45,17.10
2017,06,24,02,46,17.00
2017,06,24,02,47,16.90
2017,06,24,02,48,16.90
2017,06,24,02,49,16.90
2017,06,24,02,50,16.80
2017,06,24,02,51,16.80
2017,06,24,02,52,16.80
2017,06,24,02,53,16.80
2017,06,24,02,54,16.80
2017,06,24,02,55,16.80
2017,06,24,02,56,16.80
2017,06,24,02,57,16.70
2017,06,24,02,58,16.70
2017,06,24,02,59,16.60
2017,06,24,03,00,16.60
2017,06,24,03,01,16.70
2017,06,24,03,02,16.70
2017,06,24,03,03,16.70
2017,06,24,03,04,16.70
2017,06,24,03,05,16.70
2017,06,24,03,06,16.70
2017,06,24,03,07,16.70
2017,06,24,03,08,16.80
2017,06,24,03,09,16.80
2017,06,24,03,10,16.90
2017,06,24,03,11,16.90
2017,06,24,03,12,16.90
2017,06,24,03,13,16.90
2017,06,24,03,14,16.90
2017,06,24,03,15,16.80
2017,06,24,03,16,16.80
2017,06,24,03,17,16.80
2017,06,24,03,18,16.80
2017,06,24,03,19,16.80
2017,06,24,03,20,16.80
2017,06,24,03,21,16.80
2017,06,24,03,22,16.80
2017,06,24,03,23,16.70
2017,06,24,03,24,16.60
2017,06,24,03,25,16.60
2017,06,24,03,26,16.50
2017,06,24,03,27,16.40
2017,06,24,03,28,16.50
2017,06,24,03,29,16.50
2017,06,24,03,30,16.50
2017,06,24,03,31,16.60
2017,06,24,03,32,16.60
2017,06,24,03,33,16.60
2017,06,24,03,34,16.70
2017,06,24,03,35,16.70
2017,06,24,03,36,16.70
2017,06,24,03,37,16.70
2017,06,24,03,38,16.70
2017,06,24,03,39,16.80
2017,06,24,03,40,16.80
2017,06,24,03,41,16.80
2017,06,24,03,42,16.80
2017,06,24,03,43,16.80
2017,06,24,03,44,16.70
2017,06,24,03,45,16.80
2017,06,24,03,46,16.80
2017,06,24,03,47,16.80
2017,06,24,03,48,16.80
2017,06,24,03,49,16.90
2017,06,24,03,50,16.90
2017,06,24,03,51,16.90
2017,06,24,03,52,16.90
2017,06,24,03,53,17.00
2017,06,24,03,54,17.00
2017,06,24,03,55,17.00
2017,06,24,03,56,17.00
2017,06,24,03,57,16.90
2017,06,24,03,58,16.90
2017,06,24,03,59,16.90
2017,06,24,04,00,16.80
2017,06,24,04,01,16.80
2017,06,24,04,02,16.80
2017,06,24,04,03,16.80
2017,06,24,04,04,16.80
2017,06,24,04,05,16.70
2017,06,24,04,06,16.70
2017,06,24,04,07,16.70
2017,06,24,04,08,16.60
2017,06,24,04,09,16.60
2017,06,24,04,10,16.50
2017,06,24,04,11,16.40
2017,06,24,04,12,16.40
2017,06,24,04,13,16.30
2017,06,24,04,14,16.30
2017,06,24,04,15,16.30
2017,06,24,04,16,16.20
2017,06,24,04,17,16.20
2017,06,24,04,18,16.20
2017,06,24,04,19,16.10
2017,06,24,04,20,16.10
2017,06,24,04,21,16.10
2017,06,24,04,22,16.00
2017,06,24,04,23,16.00
2017,06,24,04,24,15.90
2017,06,24,04,25,15.90
2017,06,24,04,26,15.80
2017,06,24,04,27,15.80
2017,06,24,04,28,15.70
2017,06,24,04,29,15.70
2017,06,24,04,30,15.70
2017,06,24,04,31,15.60
2017,06,24,04,32,15.60
2017,06,24,04,33,15.60
2017,06,24,04,34,15.50
2017,06,24,04,35,15.50
2017,06,24,04,36,15.40
2017,06,24,04,37,15.40
2017,06,24,04,38,15.30
2017,06,24,04,39,15.30
2017,06,24,04,40,15.30
2017,06,24,04,41,15.20
2017,06,24,04,42,15.10
2017,06,24,04,43,15.10
2017,06,24,04,44,15.00
2017,06,24,04,45,15.00
2017,06,24,04,46,15.00
2017,06,24,04,47,14.90
2017,06,24,04,48,14.90
2017,06,24,04,49,14.90
2017,06,24,04,50,14.90
2017,06,24,04,51,14.90
2017,06,24,04,52,14.90
2017,06,24,04,53,14.80
2017,06,24,04,54,14.80
2017,06,24,04,55,14.80
2017,06,24,04,56,14.80
2017,06,24,04,57,14.70
2017,06,24,04,58,14.70
2017,06,24,04,59,14.70
2017,06,24,05,00,14.60
2017,06,24,05,01,14.60
2017,06,24,05,02,14.60
2017,06,24,05,03,14.50
2017,06,24,05,04,14.50
2017,06,24,05,05,14.50
2017,06,24,05,06,14.50
2017,06,24,05,07,14.50
2017,06,24,05,08,14.40
2017,06,24,05,09,14.40
2017,06,24,05,10,14.40
2017,06,24,05,11,14.40
2017,06,24,05,12,14.30
2017,06,24,05,13,14.30
2017,06,24,05,14,14.30
2017,06,24,05,15,14.30
2017,06,24,05,16,14.30
2017,06,24,05,17,14.30
2017,06,24,05,18,14.20
2017,06,24,05,19,14.20
2017,06,24,05,20,14.20
2017,06,24,05,21,14.10
2017,06,24,05,22,14.10
2017,06,24,05,23,14.10
2017,06,24,05,24,14.10
2017,06,24,05,25,14.10
2017,06,24,05,26,14.10
2017,06,24,05,27,14.00
2017,06,24,05,28,14.00
2017,06,24,05,29,14.00
2017,06,24,05,30,14.00
2017,06,24,05,31,14.00
2017,06,24,05,32,14.00
2017,06,24,05,33,13.90
2017,06,24,05,34,13.90
2017,06,24,05,35,13.90
2017,06,24,05,36,13.90
2017,06,24,05,37,13.90
2017,06,24,05,38,13.80
2017,06,24,05,39,13.80
2017,06,24,05,40,13.80
2017,06,24,05,41,13.80
2017,06,24,05,42,13.80
2017,06,24,05,43,13.80
2017,06,24,05,44,13.90
2017,06,24,05,45,13.80
2017,06,24,05,46,13.90
2017,06,24,05,47,13.90
2017,06,24,05,48,13.90
2017,06,24,05,49,13.90
2017,06,24,05,50,13.90
2017,06,24,05,51,13.90
2017,06,24,05,52,13.90
2017,06,24,05,53,13.90
2017,06,24,05,54,13.90
2017,06,24,05,55,13.90
2017,06,24,05,56,13.90
2017,06,24,05,57,13.90
2017,06,24,05,58,13.90
2017,06,24,05,59,13.90
2017,06,24,06,00,14.00
2017,06,24,06,01,14.00
2017,06,24,06,02,14.00
2017,06,24,06,03,14.00
2017,06,24,06,04,14.00
2017,06,24,06,05,14.00
2017,06,24,06,06,14.00
2017,06,24,06,07,14.00
2017,06,24,06,08,14.10
2017,06,24,06,09,14.10
2017,06,24,06,10,14.10
2017,06,24,06,11,14.10
2017,06,24,06,12,14.10
2017,06,24,06,13,14.10
2017,06,24,06,14,14.20
2017,06,24,06,15,14.20
2017,06,24,06,16,14.20
2017,06,24,06,17,14.20
2017,06,24,06,18,14.20
2017,06,24,06,19,14.20
2017,06,24,06,20,14.30
2017,06,24,06,21,14.30
2017,06,24,06,22,14.30
2017,06,24,06,23,14.30
2017,06,24,06,24,14.40
2017,06,24,06,25,14.40
2017,06,24,06,26,14.40
2017,06,24,06,27,14.40
2017,06,24,06,28,14.50
2017,06,24,06,29,14.50
2017,06,24,06,30,14.60
2017,06,24,06,31,14.60
2017,06,24,06,32,14.60
2017,06,24,06,33,14.60
2017,06,24,06,34,14.60
2017,06,24,06,35,14.70
2017,06,24,06,36,14.70
2017,06,24,06,37,14.70
2017,06,24,06,38,14.70
2017,06,24,06,39,14.80
2017,06,24,06,40,14.80
2017,06,24,06,41,14.80
2017,06,24,06,42,14.80
2017,06,24,06,43,14.90
2017,06,24,06,44,14.90
2017,06,24,06,45,14.90
2017,06,24,06,46,15.00
2017,06,24,06,47,15.00
2017,06,24,06,48,15.10
2017,06,24,06,49,15.10
2017,06,24,06,50,15.10
2017,06,24,06,51,15.20
2017,06,24,06,52,15.20
2017,06,24,06,53,15.20
2017,06,24,06,54,15.30
2017,06,24,06,55,15.30
2017,06,24,06,56,15.40
2017,06,24,06,57,15.40
2017,06,24,06,58,15.40
2017,06,24,06,59,15.50
2017,06,24,07,00,15.60
2017,06,24,07,01,15.60
2017,06,24,07,02,15.70
2017,06,24,07,03,15.80
2017,06,24,07,04,15.80
2017,06,24,07,05,15.90
2017,06,24,07,06,15.90
2017,06,24,07,07,16.00
2017,06,24,07,08,16.00
2017,06,24,07,09,16.10
2017,06,24,07,10,16.10
2017,06,24,07,11,16.20
2017,06,24,07,12,16.20
2017,06,24,07,13,16.30
2017,06,24,07,14,16.50
2017,06,24,07,15,16.70
2017,06,24,07,16,16.90
2017,06,24,07,17,17.00
2017,06,24,07,18,17.20
2017,06,24,07,19,17.40
2017,06,24,07,20,17.50
2017,06,24,07,21,17.60
2017,06,24,07,22,17.70
2017,06,24,07,23,17.80
2017,06,24,07,24,18.00
2017,06,24,07,25,18.10
2017,06,24,07,26,18.30
2017,06,24,07,27,18.30
2017,06,24,07,28,18.40
2017,06,24,07,29,18.50
2017,06,24,07,30,18.60
2017,06,24,07,31,18.70
2017,06,24,07,32,18.80
2017,06,24,07,33,18.90
2017,06,24,07,34,18.90
2017,06,24,07,35,19.00
2017,06,24,07,36,19.10
2017,06,24,07,37,19.20
2017,06,24,07,38,19.40
2017,06,24,07,39,19.40
2017,06,24,07,40,19.50
2017,06,24,07,41,19.50
2017,06,24,07,42,19.50
2017,06,24,07,43,19.50
2017,06,24,07,44,19.50
2017,06,24,07,45,19.50
2017,06,24,07,46,19.50
2017,06,24,07,47,19.50
2017,06,24,07,48,19.50
2017,06,24,07,49,19.60
2017,06,24,07,50,19.60
2017,06,24,07,51,19.60
2017,06,24,07,52,19.60
2017,06,24,07,53,19.50
2017,06,24,07,54,19.50
2017,06,24,07,55,19.50
2017,06,24,07,56,19.50
2017,06,24,07,57,19.50
2017,06,24,07,58,19.60
2017,06,24,07,59,19.50
2017,06,24,08,00,19.50
2017,06,24,08,01,19.50
2017,06,24,08,02,19.50
2017,06,24,08,03,19.50
2017,06,24,08,04,19.60
2017,06,24,08,05,19.60
2017,06,24,08,06,19.70
2017,06,24,08,07,19.70
2017,06,24,08,08,19.70
2017,06,24,08,09,19.70
2017,06,24,08,10,19.70
2017,06,24,08,11,19.70
2017,06,24,08,12,19.70
2017,06,24,08,13,19.60
2017,06,24,08,14,19.60
2017,06,24,08,15,19.60
2017,06,24,08,16,19.50
2017,06,24,08,17,19.50
2017,06,24,08,18,19.60
2017,06,24,08,19,19.60
2017,06,24,08,20,19.50
2017,06,24,08,21,19.60
2017,06,24,08,22,19.60
2017,06,24,08,23,19.60
2017,06,24,08,24,19.60
2017,06,24,08,25,19.60
2017,06,24,08,26,19.70
2017,06,24,08,27,19.70
2017,06,24,08,28,19.70
2017,06,24,08,29,19.70
2017,06,24,08,30,19.80
2017,06,24,08,31,19.80
2017,06,24,08,32,19.70
2017,06,24,08,33,19.70
2017,06,24,08,34,19.80
2017,06,24,08,35,19.80
2017,06,24,08,36,19.80
2017,06,24,08,37,19.80
2017,06,24,08,38,19.80
2017,06,24,08,39,19.90
2017,06,24,08,40,19.90
2017,06,24,08,41,20.00
2017,06,24,08,42,20.10
2017,06,24,08,43,20.10
2017,06,24,08,44,20.10
2017,06,24,08,45,20.10
2017,06,24,08,46,20.00
2017,06,24,08,47,20.00
2017,06,24,08,48,19.90
2017,06,24,08,49,19.90
2017,06,24,08,50,19.90
2017,06,24,08,51,20.00
2017,06,24,08,52,20.10
2017,06,24,08,53,20.10
2017,06,24,08,54,20.10
2017,06,24,08,55,20.20
2017,06,24,08,56,20.30
2017,06,24,08,57,20.30
2017,06,24,08,58,20.30
2017,06,24,08,59,20.20
2017,06,24,09,00,20.20
2017,06,24,09,01,20.20
2017,06,24,09,02,20.10
2017,06,24,09,03,20.10
2017,06,24,09,04,20.10
2017,06,24,09,05,20.20
2017,06,24,09,06,20.20
2017,06,24,09,07,20.30
2017,06,24,09,08,20.40
2017,06,24,09,09,20.50
2017,06,24,09,10,20.60
2017,06,24,09,11,20.60
2017,06,24,09,12,20.70
2017,06,24,09,13,20.70
2017,06,24,09,14,20.70
2017,06,24,09,15,20.80
2017,06,24,09,16,20.80
2017,06,24,09,17,20.90
2017,06,24,09,18,21.00
2017,06,24,09,19,21.00
2017,06,24,09,20,21.00
2017,06,24,09,21,21.00
2017,06,24,09,22,20.90
2017,06,24,09,23,20.90
2017,06,24,09,24,20.90
2017,06,24,09,25,20.90
2017,06,24,09,26,21.00
2017,06,24,09,27,21.00
2017,06,24,09,28,21.00
2017,06,24,09,29,21.00
2017,06,24,09,30,21.00
2017,06,24,09,31,21.00
2017,06,24,09,32,21.10
2017,06,24,09,33,21.20
2017,06,24,09,34,21.20
2017,06,24,09,35,21.30
2017,06,24,09,36,21.40
2017,06,24,09,37,21.40
2017,06,24,09,38,21.50
2017,06,24,09,39,21.50
2017,06,24,09,40,21.50
2017,06,24,09,41,21.50
2017,06,24,09,42,21.40
2017,06,24,09,43,21.40
2017,06,24,09,44,21.40
2017,06,24,09,45,21.40
2017,06,24,09,46,21.30
2017,06,24,09,47,21.30
2017,06,24,09,48,21.30
2017,06,24,09,49,21.20
2017,06,24,09,50,21.20
2017,06,24,09,51,21.20
2017,06,24,09,52,21.20
2017,06,24,09,53,21.10
2017,06,24,09,54,21.20
2017,06,24,09,55,21.20
2017,06,24,09,56,21.30
2017,06,24,09,57,21.30
2017,06,24,09,58,21.30
2017,06,24,09,59,21.40
2017,06,24,10,00,21.40
2017,06,24,10,01,21.30
2017,06,24,10,02,21.30
2017,06,24,10,03,21.30
2017,06,24,10,04,21.30
2017,06,24,10,05,21.20
2017,06,24,10,06,21.20
2017,06,24,10,07,21.20
2017,06,24,10,08,21.20
2017,06,24,10,09,21.20
2017,06,24,10,10,21.20
2017,06,24,10,11,21.30
2017,06,24,10,12,21.30
2017,06,24,10,13,21.30
2017,06,24,10,14,21.30
2017,06,24,10,15,21.30
2017,06,24,10,16,21.40
2017,06,24,10,17,21.40
2017,06,24,10,18,21.40
2017,06,24,10,19,21.40
2017,06,24,10,20,21.40
2017,06,24,10,21,21.40
2017,06,24,10,22,21.40
2017,06,24,10,23,21.30
2017,06,24,10,24,21.30
2017,06,24,10,25,21.30
2017,06,24,10,26,21.30
2017,06,24,10,27,21.30
2017,06,24,10,28,21.30
2017,06,24,10,29,21.30
2017,06,24,10,30,21.30
2017,06,24,10,31,21.30
2017,06,24,10,32,21.30
2017,06,24,10,33,21.30
2017,06,24,10,34,21.30
2017,06,24,10,35,21.30
2017,06,24,10,36,21.30
2017,06,24,10,37,21.40
2017,06,24,10,38,21.40
2017,06,24,10,39,21.40
2017,06,24,10,40,21.50
2017,06,24,10,41,21.60
2017,06,24,10,42,21.70
2017,06,24,10,43,21.70
2017,06,24,10,44,21.80
2017,06,24,10,45,21.90
2017,06,24,10,46,21.90
2017,06,24,10,47,21.90
2017,06,24,10,48,21.90
2017,06,24,10,49,21.90
2017,06,24,10,50,22.00
2017,06,24,10,51,22.10
2017,06,24,10,52,22.10
2017,06,24,10,53,22.00
2017,06,24,10,54,22.00
2017,06,24,10,55,22.00
2017,06,24,10,56,22.10
2017,06,24,10,57,22.10
2017,06,24,10,58,22.20
2017,06,24,10,59,22.20
2017,06,24,11,00,22.30
2017,06,24,11,01,22.30
2017,06,24,11,02,22.40
2017,06,24,11,03,22.40
2017,06,24,11,04,22.40
2017,06,24,11,05,22.50
2017,06,24,11,06,22.60
2017,06,24,11,07,22.70
2017,06,24,11,08,22.70
2017,06,24,11,09,22.70
2017,06,24,11,10,22.90
2017,06,24,11,11,23.00
2017,06,24,11,12,23.20
2017,06,24,11,13,23.30
2017,06,24,11,14,23.30
2017,06,24,11,15,23.40
2017,06,24,11,16,23.40
2017,06,24,11,17,23.40
2017,06,24,11,18,23.40
2017,06,24,11,19,23.30
2017,06,24,11,20,23.30
2017,06,24,11,21,23.30
2017,06,24,11,22,23.30
2017,06,24,11,23,23.30
2017,06,24,11,24,23.30
2017,06,24,11,25,23.30
2017,06,24,11,26,23.20
2017,06,24,11,27,23.10
2017,06,24,11,28,23.10
2017,06,24,11,29,23.00
2017,06,24,11,30,23.00
2017,06,24,11,31,23.00
2017,06,24,11,32,23.20
2017,06,24,11,33,23.20
2017,06,24,11,34,23.30
2017,06,24,11,35,23.30
2017,06,24,11,36,23.30
2017,06,24,11,37,23.30
2017,06,24,11,38,23.30
2017,06,24,11,39,23.30
2017,06,24,11,40,23.30
2017,06,24,11,41,23.30
2017,06,24,11,42,23.30
2017,06,24,11,43,23.40
2017,06,24,11,44,23.50
2017,06,24,11,45,23.60
2017,06,24,11,46,23.70
2017,06,24,11,47,23.70
2017,06,24,11,48,23.70
2017,06,24,11,49,23.70
2017,06,24,11,50,23.60
2017,06,24,11,51,23.50
2017,06,24,11,52,23.40
2017,06,24,11,53,23.30
2017,06,24,11,54,23.20
2017,06,24,11,55,23.20
2017,06,24,11,56,23.10
2017,06,24,11,57,23.10
2017,06,24,11,58,23.10
2017,06,24,11,59,23.20
2017,06,24,12,00,23.20
2017,06,24,12,01,23.20
2017,06,24,12,02,23.20
2017,06,24,12,03,23.20
2017,06,24,12,04,23.20
2017,06,24,12,05,23.20
2017,06,24,12,06,23.30
2017,06,24,12,07,23.30
2017,06,24,12,08,23.40
2017,06,24,12,09,23.40
2017,06,24,12,10,23.50
2017,06,24,12,11,23.60
2017,06,24,12,12,23.60
2017,06,24,12,13,23.70
2017,06,24,12,14,23.80
2017,06,24,12,15,23.90
2017,06,24,12,16,24.00
2017,06,24,12,17,24.10
2017,06,24,12,18,24.20
2017,06,24,12,19,24.20
2017,06,24,12,20,24.10
2017,06,24,12,21,24.10
2017,06,24,12,22,24.00
2017,06,24,12,23,23.90
2017,06,24,12,24,23.80
2017,06,24,12,25,23.70
2017,06,24,12,26,23.50
2017,06,24,12,27,23.40
2017,06,24,12,28,23.30
2017,06,24,12,29,23.20
2017,06,24,12,30,23.10
2017,06,24,12,31,23.10
2017,06,24,12,32,23.10
2017,06,24,12,33,23.20
2017,06,24,12,34,23.40
2017,06,24,12,35,23.50
2017,06,24,12,36,23.60
2017,06,24,12,37,23.70
2017,06,24,12,38,23.70
2017,06,24,12,39,23.70
2017,06,24,12,40,23.90
2017,06,24,12,41,24.10
2017,06,24,12,42,24.20
2017,06,24,12,43,24.30
2017,06,24,12,44,24.40
2017,06,24,12,45,24.60
2017,06,24,12,46,24.60
2017,06,24,12,47,24.70
2017,06,24,12,48,24.80
2017,06,24,12,49,24.80
2017,06,24,12,50,24.80
2017,06,24,12,51,24.80
2017,06,24,12,52,24.80
2017,06,24,12,53,24.90
2017,06,24,12,54,24.90
2017,06,24,12,55,25.00
2017,06,24,12,56,25.10
2017,06,24,12,57,25.00
2017,06,24,12,58,25.00
2017,06,24,12,59,24.90
2017,06,24,13,00,24.80
2017,06,24,13,01,24.70
2017,06,24,13,02,24.50
2017,06,24,13,03,24.40
2017,06,24,13,04,24.40
2017,06,24,13,05,24.40
2017,06,24,13,06,24.40
2017,06,24,13,07,24.40
2017,06,24,13,08,24.40
2017,06,24,13,09,24.40
2017,06,24,13,10,24.40
2017,06,24,13,11,24.30
2017,06,24,13,12,24.20
2017,06,24,13,13,24.10
2017,06,24,13,14,24.10
2017,06,24,13,15,24.10
2017,06,24,13,16,24.30
2017,06,24,13,17,24.40
2017,06,24,13,18,24.40
2017,06,24,13,19,24.50
2017,06,24,13,20,24.50
2017,06,24,13,21,24.60
2017,06,24,13,22,24.60
2017,06,24,13,23,24.60
2017,06,24,13,24,24.60
2017,06,24,13,25,24.60
2017,06,24,13,26,24.60
2017,06,24,13,27,24.60
2017,06,24,13,28,24.60
2017,06,24,13,29,24.60
2017,06,24,13,30,24.70
2017,06,24,13,31,24.80
2017,06,24,13,32,24.70
2017,06,24,13,33,24.70
2017,06,24,13,34,24.70
2017,06,24,13,35,24.60
2017,06,24,13,36,24.60
2017,06,24,13,37,24.60
2017,06,24,13,38,24.60
2017,06,24,13,39,24.60
2017,06,24,13,40,24.70
2017,06,24,13,41,24.80
2017,06,24,13,42,25.00
2017,06,24,13,43,25.10
2017,06,24,13,44,25.20
2017,06,24,13,45,25.30
2017,06,24,13,46,25.40
2017,06,24,13,47,25.40
2017,06,24,13,48,25.40
2017,06,24,13,49,25.30
2017,06,24,13,50,25.30
2017,06,24,13,51,25.30
2017,06,24,13,52,25.40
2017,06,24,13,53,25.60
2017,06,24,13,54,25.70
2017,06,24,13,55,25.70
2017,06,24,13,56,25.80
2017,06,24,13,57,25.80
2017,06,24,13,58,25.90
2017,06,24,13,59,26.00
2017,06,24,14,00,26.00
2017,06,24,14,01,26.10
2017,06,24,14,02,26.20
2017,06,24,14,03,26.30
2017,06,24,14,04,26.40
2017,06,24,14,05,26.50
2017,06,24,14,06,26.70
2017,06,24,14,07,26.80
2017,06,24,14,08,26.80
2017,06,24,14,09,26.80
2017,06,24,14,10,26.90
2017,06,24,14,11,27.00
2017,06,24,14,12,27.00
2017,06,24,14,13,27.00
2017,06,24,14,14,26.90
2017,06,24,14,15,26.90
2017,06,24,14,16,26.70
2017,06,24,14,17,26.50
2017,06,24,14,18,26.30
2017,06,24,14,19,26.20
2017,06,24,14,20,26.10
2017,06,24,14,21,26.00
2017,06,24,14,22,25.90
2017,06,24,14,23,25.90
2017,06,24,14,24,25.80
2017,06,24,14,25,25.80
2017,06,24,14,26,25.80
2017,06,24,14,27,25.80
2017,06,24,14,28,25.80
2017,06,24,14,29,25.90
2017,06,24,14,30,26.00
2017,06,24,14,31,26.20
2017,06,24,14,32,26.30
2017,06,24,14,33,26.30
2017,06,24,14,34,26.30
2017,06,24,14,35,26.30
2017,06,24,14,36,26.30
2017,06,24,14,37,26.20
2017,06,24,14,38,26.20
2017,06,24,14,39,26.30
2017,06,24,14,40,26.30
2017,06,24,14,41,26.40
2017,06,24,14,42,26.50
2017,06,24,14,43,26.60
2017,06,24,14,44,26.70
2017,06,24,14,45,26.80
2017,06,24,14,46,26.80
2017,06,24,14,47,26.90
2017,06,24,14,48,26.90
2017,06,24,14,49,26.90
2017,06,24,14,50,26.90
2017,06,24,14,51,26.90
2017,06,24,14,52,27.00
2017,06,24,14,53,27.10
2017,06,24,14,54,27.10
2017,06,24,14,55,26.90
2017,06,24,14,56,26.70
2017,06,24,14,57,26.50
2017,06,24,14,58,26.40
2017,06,24,14,59,26.30
2017,06,24,15,00,26.30
2017,06,24,15,01,26.30
2017,06,24,15,02,26.30
2017,06,24,15,03,26.50
2017,06,24,15,04,26.70
2017,06,24,15,05,26.80
2017,06,24,15,06,26.90
2017,06,24,15,07,26.90
2017,06,24,15,08,26.90
2017,06,24,15,09,27.00
2017,06,24,15,10,27.00
2017,06,24,15,11,27.00
2017,06,24,15,12,27.00
2017,06,24,15,13,27.00
2017,06,24,15,14,27.00
2017,06,24,15,15,27.00
2017,06,24,15,16,27.00
2017,06,24,15,17,27.10
2017,06,24,15,18,27.10
2017,06,24,15,19,27.00
2017,06,24,15,20,26.90
2017,06,24,15,21,26.80
2017,06,24,15,22,26.80
2017,06,24,15,23,26.80
2017,06,24,15,24,26.80
2017,06,24,15,25,26.80
2017,06,24,15,26,26.80
2017,06,24,15,27,26.90
2017,06,24,15,28,27.00
2017,06,24,15,29,27.00
2017,06,24,15,30,27.10
2017,06,24,15,31,27.20
2017,06,24,15,32,27.30
2017,06,24,15,33,27.40
2017,06,24,15,34,27.30
2017,06,24,15,35,27.30
2017,06,24,15,36,27.20
2017,06,24,15,37,27.20
2017,06,24,15,38,27.10
2017,06,24,15,39,27.10
2017,06,24,15,40,27.10
2017,06,24,15,41,27.10
2017,06,24,15,42,27.00
2017,06,24,15,43,26.90
2017,06,24,15,44,26.80
2017,06,24,15,45,26.60
2017,06,24,15,46,26.50
2017,06,24,15,47,26.40
2017,06,24,15,48,26.40
2017,06,24,15,49,26.40
2017,06,24,15,50,26.40
2017,06,24,15,51,26.40
2017,06,24,15,52,26.50
2017,06,24,15,53,26.50
2017,06,24,15,54,26.60
2017,06,24,15,55,26.70
2017,06,24,15,56,26.70
2017,06,24,15,57,26.80
2017,06,24,15,58,26.90
2017,06,24,15,59,27.00
2017,06,24,16,00,27.00
2017,06,24,16,01,27.00
2017,06,24,16,02,26.90
2017,06,24,16,03,26.90
2017,06,24,16,04,26.90
2017,06,24,16,05,26.90
2017,06,24,16,06,26.80
2017,06,24,16,07,26.70
2017,06,24,16,08,26.60
2017,06,24,16,09,26.50
2017,06,24,16,10,26.40
2017,06,24,16,11,26.40
2017,06,24,16,12,26.40
2017,06,24,16,13,26.50
2017,06,24,16,14,26.50
2017,06,24,16,15,26.60
2017,06,24,16,16,26.70
2017,06,24,16,17,26.80
2017,06,24,16,18,26.80
2017,06,24,16,19,26.80
2017,06,24,16,20,26.80
2017,06,24,16,21,26.80
2017,06,24,16,22,26.80
2017,06,24,16,23,26.80
2017,06,24,16,24,26.80
2017,06,24,16,25,26.80
2017,06,24,16,26,26.80
2017,06,24,16,27,26.80
2017,06,24,16,28,26.90
2017,06,24,16,29,26.90
2017,06,24,16,30,27.00
2017,06,24,16,31,27.10
2017,06,24,16,32,27.10
2017,06,24,16,33,27.10
2017,06,24,16,34,27.20
2017,06,24,16,35,27.30
2017,06,24,16,36,27.40
2017,06,24,16,37,27.50
2017,06,24,16,38,27.60
2017,06,24,16,39,27.60
2017,06,24,16,40,27.60
2017,06,24,16,41,27.60
2017,06,24,16,42,27.60
2017,06,24,16,43,27.50
2017,06,24,16,44,27.50
2017,06,24,16,45,27.50
2017,06,24,16,46,27.40
2017,06,24,16,47,27.40
2017,06,24,16,48,27.40
2017,06,24,16,49,27.50
2017,06,24,16,50,27.50
2017,06,24,16,51,27.50
2017,06,24,16,52,27.50
2017,06,24,16,53,27.50
2017,06,24,16,54,27.60
2017,06,24,16,55,27.60
2017,06,24,16,56,27.60
2017,06,24,16,57,27.70
2017,06,24,16,58,27.80
2017,06,24,16,59,27.90
2017,06,24,17,00,28.00
2017,06,24,17,01,28.10
2017,06,24,17,02,28.20
2017,06,24,17,03,28.20
2017,06,24,17,04,28.20
2017,06,24,17,05,28.20
2017,06,24,17,06,28.30
2017,06,24,17,07,28.20
2017,06,24,17,08,28.20
2017,06,24,17,09,28.20
2017,06,24,17,10,28.20
2017,06,24,17,11,28.20
2017,06,24,17,12,28.30
2017,06,24,17,13,28.30
2017,06,24,17,14,28.30
2017,06,24,17,15,28.40
2017,06,24,17,16,28.40
2017,06,24,17,17,28.40
2017,06,24,17,18,28.30
2017,06,24,17,19,28.30